Date String (YYYY-MM-DD hh:mm:ss) UTC,Instrument flags,Ambient pressure (hPa),Sample flow (lpm),Bypass flow (lpm),Sample temperature (°C),Ambient temperature (°C),ASC tube jacket temperature (°C),LED temperature (°C),Box temperature (°C),Sample RH (%),Span deviation,Mass concentration (μg/m³),Mass concentration (μg/m³),Mass concentration (μg/m³)
DateTimeUTC,F1_M11,P_M11,Q1_M11,Q2_M11,T1_M11,T2_M11,T3_M11,T4_M11,T5_M11,U1_M11,ZSPAN_M11,X2_M11,X0_M11,X1_M11
2023-01-19 03:00:00,,0818.7,5.01,0.00,21.9,21.4,00.0,30.5,23.7,14.4,0000.0,0004.47,0008.58,0004.26
2023-01-19 03:01:00,,0818.7,5.00,0.00,21.9,21.1,00.0,30.6,23.7,14.3,0000.0,0004.47,0008.67,0004.26
2023-01-19 03:02:00,,0818.7,4.99,0.00,21.9,20.8,00.0,30.6,23.6,14.4,0000.0,0004.47,0009.15,0004.26
2023-01-19 03:03:00,,0818.7,4.99,0.00,21.9,20.6,00.0,30.6,23.6,14.4,0000.0,0004.50,0009.21,0004.28
2023-01-19 03:04:00,,0818.7,5.01,0.00,21.8,20.2,00.0,30.6,23.5,14.5,0000.0,0004.55,0008.76,0004.32
2023-01-19 03:05:00,,0818.7,4.99,0.00,21.8,19.9,00.0,30.6,23.3,14.6,0000.0,0004.59,0008.15,0004.35
2023-01-19 03:06:00,,0818.7,5.00,0.00,21.7,19.7,00.0,30.5,23.2,14.6,0000.0,0004.62,0007.98,0004.39
2023-01-19 03:07:00,,0818.7,4.99,0.00,21.7,19.6,00.0,30.5,23.2,14.7,0000.0,0004.63,0008.04,0004.41
2023-01-19 03:08:00,,0818.7,5.01,0.00,21.6,19.4,00.0,30.5,23.1,14.8,0000.0,0004.66,0008.03,0004.43
2023-01-19 03:09:00,,0818.6,5.01,0.00,21.5,19.3,00.0,30.5,23.0,14.9,0000.0,0004.69,0008.04,0004.46
2023-01-19 03:10:00,,0818.7,4.99,0.00,21.5,19.8,00.0,30.4,23.1,14.9,0000.0,0004.71,0008.06,0004.48
2023-01-19 03:11:00,,0818.7,5.01,0.00,21.6,21.1,00.0,30.4,23.4,14.8,0000.0,0004.70,0008.09,0004.48
2023-01-19 03:12:00,,0818.7,5.00,0.00,21.7,22.1,00.0,30.4,23.7,14.7,0000.0,0004.72,0008.10,0004.49
2023-01-19 03:13:00,,0818.6,5.00,0.00,21.8,21.9,00.0,30.5,23.7,14.6,0000.0,0004.73,0007.58,0004.49
2023-01-19 03:14:00,,0818.6,5.01,0.00,21.8,21.2,00.0,30.5,23.5,14.7,0000.0,0004.69,0007.44,0004.48
2023-01-19 03:15:00,,0818.6,5.00,0.00,21.7,20.6,00.0,30.5,23.4,14.7,0000.0,0004.68,0007.46,0004.46
2023-01-19 03:16:00,,0818.5,5.00,0.00,21.7,20.2,00.0,30.5,23.3,14.8,0000.0,0004.68,0007.45,0004.46
2023-01-19 03:17:00,,0818.5,4.99,0.00,21.6,19.8,00.0,30.5,23.1,14.8,0000.0,0004.70,0007.50,0004.47
2023-01-19 03:18:00,,0818.5,4.99,0.00,21.6,19.6,00.0,30.5,23.0,14.8,0000.0,0004.75,0007.55,0004.49
2023-01-19 03:19:00,,0818.6,5.01,0.00,21.5,19.4,00.0,30.4,23.0,14.9,0000.0,0004.75,0007.53,0004.50
2023-01-19 03:20:00,,0818.6,5.01,0.00,21.5,19.3,00.0,30.4,22.9,14.9,0000.0,0004.74,0007.50,0004.50
2023-01-19 03:21:00,,0818.6,5.00,0.00,21.4,19.2,00.0,30.4,22.9,14.9,0000.0,0004.70,0007.49,0004.48
2023-01-19 03:22:00,,0818.6,4.99,0.00,21.4,19.1,00.0,30.3,22.8,14.9,0000.0,0004.70,0007.45,0004.47
2023-01-19 03:23:00,,0818.6,5.03,0.00,21.3,19.9,00.0,30.3,22.9,14.9,0000.0,0004.69,0007.41,0004.47
2023-01-19 03:24:00,,0818.6,5.01,0.00,21.5,21.2,00.0,30.3,23.2,14.9,0000.0,0004.65,0007.64,0004.47
2023-01-19 03:25:00,,0818.6,5.00,0.00,21.6,22.2,00.0,30.3,23.5,14.7,0000.0,0004.66,0007.80,0004.48
2023-01-19 03:26:00,,0818.6,4.98,0.00,21.7,21.9,00.0,30.4,23.5,14.6,0000.0,0004.67,0007.83,0004.48
2023-01-19 03:27:00,,0818.6,5.02,0.00,21.7,21.3,00.0,30.4,23.4,14.6,0000.0,0004.69,0007.87,0004.48
2023-01-19 03:28:00,,0818.5,5.01,0.00,21.7,20.9,00.0,30.4,23.4,14.6,0000.0,0004.69,0007.87,0004.50
2023-01-19 03:29:00,,0818.5,4.99,0.00,21.6,20.6,00.0,30.4,23.4,14.6,0000.0,0004.65,0007.78,0004.49
2023-01-19 03:30:00,,0818.5,5.02,0.00,21.6,20.3,00.0,30.4,23.3,14.6,0000.0,0004.64,0007.79,0004.47
2023-01-19 03:31:00,,0818.6,4.99,0.00,21.6,20.0,00.0,30.4,23.2,14.6,0000.0,0004.64,0007.80,0004.45
2023-01-19 03:32:00,,0818.6,5.01,0.00,21.5,19.7,00.0,30.4,23.1,14.6,0000.0,0004.61,0007.76,0004.42
2023-01-19 03:33:00,,0818.6,4.99,0.00,21.5,19.5,00.0,30.4,23.0,14.7,0000.0,0004.58,0007.67,0004.41
2023-01-19 03:34:00,,0818.6,5.02,0.00,21.4,19.3,00.0,30.4,23.0,14.7,0000.0,0004.55,0007.65,0004.38
2023-01-19 03:35:00,,0818.7,4.99,0.00,21.4,19.3,00.0,30.3,22.9,14.8,0000.0,0004.56,0007.34,0004.38
2023-01-19 03:36:00,,0818.7,4.99,0.00,21.3,19.2,00.0,30.3,22.8,14.8,0000.0,0004.54,0007.04,0004.35
2023-01-19 03:37:00,,0818.7,5.02,0.00,21.3,19.5,00.0,30.3,22.8,14.8,0000.0,0004.52,0006.94,0004.34
2023-01-19 03:38:00,,0818.7,5.00,0.00,21.4,20.8,00.0,30.3,23.2,14.7,0000.0,0004.51,0006.91,0004.33
2023-01-19 03:39:00,,0818.7,5.00,0.00,21.5,22.0,00.0,30.3,23.5,14.6,0000.0,0004.46,0006.81,0004.28
2023-01-19 03:40:00,,0818.7,5.00,0.00,21.6,22.2,00.0,30.3,23.6,14.5,0000.0,0004.44,0006.85,0004.23
2023-01-19 03:41:00,,0818.7,4.98,0.00,21.7,21.6,00.0,30.4,23.5,14.4,0000.0,0004.43,0006.89,0004.22
2023-01-19 03:42:00,,0818.6,5.00,0.00,21.7,21.0,00.0,30.4,23.4,14.4,0000.0,0004.44,0006.91,0004.23
2023-01-19 03:43:00,,0818.7,4.99,0.00,21.7,20.6,00.0,30.4,23.3,14.4,0000.0,0004.48,0007.02,0004.27
2023-01-19 03:44:00,,0818.7,5.02,0.00,21.6,20.3,00.0,30.4,23.3,14.5,0000.0,0004.51,0007.28,0004.28
2023-01-19 03:45:00,,0818.7,5.02,0.00,21.6,19.9,00.0,30.4,23.2,14.4,0000.0,0004.56,0007.38,0004.31
2023-01-19 03:46:00,,0818.6,5.00,0.00,21.5,19.7,00.0,30.4,23.1,14.5,0000.0,0004.58,0007.43,0004.31
2023-01-19 03:47:00,,0818.5,4.98,0.00,21.5,19.5,00.0,30.4,23.0,14.5,0000.0,0004.60,0007.45,0004.32
2023-01-19 03:48:00,,0818.5,4.99,0.00,21.5,19.4,00.0,30.3,23.0,14.5,0000.0,0004.60,0007.42,0004.32
2023-01-19 03:49:00,,0818.5,5.01,0.00,21.4,19.4,00.0,30.3,23.0,14.5,0000.0,0004.58,0007.38,0004.31
2023-01-19 03:50:00,,0818.4,5.01,0.00,21.4,19.3,00.0,30.3,22.9,14.6,0000.0,0004.58,0007.36,0004.32
2023-01-19 03:51:00,,0818.4,5.01,0.00,21.3,19.2,00.0,30.3,22.8,14.7,0000.0,0004.61,0007.37,0004.34
2023-01-19 03:52:00,,0818.5,5.01,0.00,21.3,19.5,00.0,30.2,22.9,14.7,0000.0,0004.60,0007.29,0004.34
2023-01-19 03:53:00,,0818.5,5.00,0.00,21.4,20.9,00.0,30.2,23.2,14.6,0000.0,0004.60,0007.26,0004.34
2023-01-19 03:54:00,,0818.5,5.00,0.00,21.5,22.0,00.0,30.2,23.5,14.5,0000.0,0004.58,0007.19,0004.32
2023-01-19 03:55:00,,0818.5,5.00,0.00,21.6,22.1,00.0,30.3,23.6,14.5,0000.0,0004.57,0007.46,0004.30
2023-01-19 03:56:00,,0818.5,4.99,0.00,21.7,21.5,00.0,30.3,23.5,14.5,0000.0,0004.56,0007.60,0004.30
2023-01-19 03:57:00,,0818.5,5.01,0.00,21.6,20.9,00.0,30.4,23.4,14.5,0000.0,0004.59,0007.63,0004.32
2023-01-19 03:58:00,,0818.5,5.00,0.00,21.6,20.4,00.0,30.4,23.2,14.5,0000.0,0004.62,0007.66,0004.36
2023-01-19 03:59:00,,0818.4,5.00,0.00,21.6,20.1,00.0,30.4,23.1,14.5,0000.0,0004.64,0007.71,0004.38
